Location: Unspecified
(40.9447°N, 78.9903°W)
Time: 10:34:03
(UTC-04:00)

CZ-3 Stage 3 - Pass Details

Date: 02 August 2021
Orbit: 451 x 34732 km, 30.4° (Epoch: 19 September)

Event Time Altitude Azimuth Distance (km) Brightness Sun altitude
Exits shadow 04:01:14 12° 149° (SSE) 1,924 4.4 -20.8°
Drops below altitude 10° 04:02:03 10° 140° (SE) 2,245 4.8 -20.7°
Sets 04:07:03 0° 118° (ESE) 4,600 6.7 -20.0°
